TimeEDT,TemperatureF,Dew PointF,Humidity,Sea Level PressureIn,VisibilityMPH,Wind Direction,Wind SpeedMPH,Gust SpeedMPH,PrecipitationIn,Events,Conditions,WindDirDegrees,DateUTC
12:15 AM,60.8,59.0,94,30.01,7.0,North,6.9,-,N/A,,Overcast,10,2012-04-20 04:15:00
12:35 AM,60.8,59.0,94,30.01,7.0,North,5.8,-,N/A,,Overcast,10,2012-04-20 04:35:00
12:55 AM,60.8,57.2,88,30.00,5.0,North,6.9,-,N/A,,Scattered Clouds,360,2012-04-20 04:55:00
1:15 AM,60.8,57.2,88,30.00,5.0,NNE,3.5,-,N/A,,Scattered Clouds,30,2012-04-20 05:15:00
1:35 AM,60.8,57.2,88,30.00,5.0,NNE,4.6,-,N/A,,Mostly Cloudy,30,2012-04-20 05:35:00
1:55 AM,60.8,57.2,88,29.99,7.0,NNE,6.9,-,N/A,,Mostly Cloudy,20,2012-04-20 05:55:00
2:15 AM,60.8,57.2,88,29.98,7.0,NNE,6.9,-,N/A,,Mostly Cloudy,20,2012-04-20 06:15:00
2:35 AM,59.0,55.4,88,29.97,7.0,NE,3.5,-,N/A,,Scattered Clouds,40,2012-04-20 06:35:00
2:55 AM,59.0,55.4,88,29.97,7.0,NNE,3.5,-,N/A,,Mostly Cloudy,20,2012-04-20 06:55:00
3:15 AM,59.0,57.2,94,29.96,5.0,North,3.5,-,N/A,,Overcast,10,2012-04-20 07:15:00
3:35 AM,59.0,55.4,88,29.95,5.0,North,3.5,-,N/A,,Overcast,10,2012-04-20 07:35:00
3:55 AM,59.0,55.4,88,29.96,5.0,North,3.5,-,N/A,,Mostly Cloudy,350,2012-04-20 07:55:00
4:15 AM,59.0,57.2,94,29.96,5.0,NNW,6.9,-,N/A,,Overcast,340,2012-04-20 08:15:00
4:35 AM,59.0,55.4,88,29.95,7.0,North,5.8,-,N/A,,Overcast,360,2012-04-20 08:35:00
4:55 AM,59.0,57.2,94,29.95,5.0,Calm,Calm,-,N/A,,Overcast,0,2012-04-20 08:55:00
5:15 AM,59.0,57.2,94,29.95,5.0,NNE,4.6,-,N/A,,Overcast,30,2012-04-20 09:15:00
5:35 AM,60.8,57.2,88,29.95,7.0,North,4.6,-,N/A,,Overcast,10,2012-04-20 09:35:00
5:55 AM,60.8,57.2,88,29.96,7.0,NE,5.8,-,N/A,,Overcast,40,2012-04-20 09:55:00
6:15 AM,60.8,57.2,88,29.96,7.0,NE,5.8,-,N/A,,Overcast,40,2012-04-20 10:15:00
6:35 AM,60.8,57.2,88,29.96,5.0,NE,5.8,-,N/A,,Overcast,40,2012-04-20 10:35:00
6:55 AM,60.8,57.2,88,29.97,5.0,NE,5.8,-,N/A,,Overcast,40,2012-04-20 10:55:00
7:15 AM,60.8,59.0,94,29.97,4.0,NNE,5.8,-,N/A,,Overcast,30,2012-04-20 11:15:00
7:35 AM,60.8,59.0,94,29.98,4.0,NNE,5.8,-,N/A,,Overcast,30,2012-04-20 11:35:00
7:55 AM,60.8,59.0,94,29.97,5.0,NE,5.8,-,N/A,,Overcast,40,2012-04-20 11:55:00
8:15 AM,62.6,59.0,88,29.98,5.0,NNE,5.8,-,N/A,,Overcast,30,2012-04-20 12:15:00
8:35 AM,62.6,59.0,88,29.98,7.0,NNE,4.6,-,N/A,,Overcast,30,2012-04-20 12:35:00
8:55 AM,62.6,59.0,88,29.98,5.0,NNE,5.8,-,N/A,,Overcast,20,2012-04-20 12:55:00
9:15 AM,62.6,59.0,88,29.98,7.0,NNE,6.9,-,N/A,,Overcast,20,2012-04-20 13:15:00
9:35 AM,62.6,59.0,88,29.98,7.0,NNE,5.8,-,N/A,,Overcast,20,2012-04-20 13:35:00
9:55 AM,64.4,59.0,83,29.99,7.0,North,5.8,-,N/A,,Overcast,10,2012-04-20 13:55:00
10:15 AM,64.4,59.0,83,29.99,10.0,NNE,8.1,-,N/A,,Overcast,20,2012-04-20 14:15:00
10:35 AM,64.4,59.0,83,30.00,10.0,NNE,9.2,-,N/A,,Overcast,20,2012-04-20 14:35:00
10:55 AM,64.4,59.0,83,30.00,10.0,NNE,6.9,-,N/A,,Overcast,20,2012-04-20 14:55:00
11:15 AM,64.4,59.0,83,30.00,10.0,NNE,9.2,-,N/A,,Overcast,30,2012-04-20 15:15:00
11:35 AM,66.2,59.0,78,30.01,10.0,NE,5.8,-,N/A,,Overcast,40,2012-04-20 15:35:00
11:55 AM,68.0,59.0,73,30.00,10.0,NNE,5.8,-,N/A,,Overcast,30,2012-04-20 15:55:00
12:15 PM,68.0,59.0,73,29.99,10.0,NE,6.9,-,N/A,,Overcast,50,2012-04-20 16:15:00
12:35 PM,68.0,59.0,73,29.99,10.0,NE,4.6,-,N/A,,Overcast,50,2012-04-20 16:35:00
12:55 PM,69.8,59.0,68,29.98,10.0,NNE,5.8,-,N/A,,Overcast,30,2012-04-20 16:55:00
1:15 PM,69.8,59.0,68,29.98,10.0,NNE,4.6,-,N/A,,Overcast,20,2012-04-20 17:15:00
1:35 PM,71.6,59.0,64,29.97,10.0,North,5.8,-,N/A,,Overcast,10,2012-04-20 17:35:00
1:55 PM,71.6,59.0,64,29.97,10.0,Calm,Calm,-,N/A,,Overcast,0,2012-04-20 17:55:00
2:15 PM,73.4,59.0,61,29.96,10.0,East,5.8,-,N/A,,Overcast,100,2012-04-20 18:15:00
2:35 PM,71.6,59.0,64,29.95,10.0,ENE,4.6,-,N/A,,Overcast,60,2012-04-20 18:35:00
3:15 PM,73.4,59.0,61,29.94,10.0,ESE,4.6,-,N/A,,Scattered Clouds,120,2012-04-20 19:15:00
3:35 PM,73.4,59.0,61,29.93,10.0,ESE,5.8,-,N/A,,Mostly Cloudy,120,2012-04-20 19:35:00
3:55 PM,71.6,59.0,64,29.92,10.0,Calm,Calm,-,N/A,,Mostly Cloudy,0,2012-04-20 19:55:00
4:15 PM,73.4,59.0,61,29.92,10.0,ESE,8.1,-,N/A,,Scattered Clouds,120,2012-04-20 20:15:00
4:35 PM,73.4,60.8,65,29.92,10.0,ESE,9.2,-,N/A,,Mostly Cloudy,120,2012-04-20 20:35:00
4:55 PM,71.6,59.0,64,29.91,10.0,SE,8.1,-,N/A,,Scattered Clouds,140,2012-04-20 20:55:00
5:15 PM,73.4,59.0,61,29.91,10.0,ESE,8.1,-,N/A,,Scattered Clouds,120,2012-04-20 21:15:00
5:35 PM,71.6,59.0,64,29.90,10.0,ESE,8.1,-,N/A,,Clear,120,2012-04-20 21:35:00
5:55 PM,71.6,59.0,64,29.89,10.0,SE,9.2,-,N/A,,Clear,130,2012-04-20 21:55:00
6:15 PM,71.6,60.8,69,29.89,10.0,SE,8.1,-,N/A,,Scattered Clouds,130,2012-04-20 22:15:00
6:35 PM,69.8,60.8,73,29.89,10.0,SE,8.1,-,N/A,,Mostly Cloudy,130,2012-04-20 22:35:00
6:55 PM,69.8,60.8,73,29.88,10.0,SE,9.2,-,N/A,,Scattered Clouds,130,2012-04-20 22:55:00
7:15 PM,68.0,60.8,78,29.88,10.0,ESE,8.1,-,N/A,,Clear,110,2012-04-20 23:15:00
7:35 PM,66.2,60.8,83,29.88,10.0,ESE,4.6,-,N/A,,Clear,110,2012-04-20 23:35:00
7:55 PM,64.4,60.8,88,29.88,10.0,ESE,5.8,-,N/A,,Clear,120,2012-04-20 23:55:00
8:15 PM,64.4,60.8,88,29.88,10.0,Calm,Calm,-,N/A,,Clear,0,2012-04-21 00:15:00
8:35 PM,62.6,60.8,94,29.89,10.0,Calm,Calm,-,N/A,,Clear,0,2012-04-21 00:35:00
8:55 PM,62.6,60.8,94,29.90,10.0,SSE,3.5,-,N/A,,Scattered Clouds,150,2012-04-21 00:55:00
9:15 PM,62.6,60.8,94,29.90,10.0,Calm,Calm,-,N/A,,Clear,0,2012-04-21 01:15:00
9:35 PM,62.6,59.0,88,29.90,10.0,Calm,Calm,-,N/A,,Clear,0,2012-04-21 01:35:00
9:55 PM,62.6,60.8,94,29.90,10.0,Calm,Calm,-,N/A,,Clear,0,2012-04-21 01:55:00
10:15 PM,62.6,59.0,88,29.90,1.2,Calm,Calm,-,N/A,,Scattered Clouds,0,2012-04-21 02:15:00
10:35 PM,60.8,59.0,94,29.90,3.0,Calm,Calm,-,N/A,,Scattered Clouds,0,2012-04-21 02:35:00
10:55 PM,60.8,59.0,94,29.90,7.0,Calm,Calm,-,N/A,,Scattered Clouds,0,2012-04-21 02:55:00
11:15 PM,59.0,55.4,88,29.90,10.0,Calm,Calm,-,N/A,,Clear,0,2012-04-21 03:15:00
11:35 PM,59.0,55.4,88,29.90,7.0,Calm,Calm,-,N/A,,Clear,0,2012-04-21 03:35:00
11:55 PM,57.2,55.4,94,29.89,10.0,Calm,Calm,-,N/A,,Clear,0,2012-04-21 03:55:00